(°C)
36°
35°
33°
31°
29°
28°
27°
(°C)
36°
35°
35°
33°
31°
30°
29°
ЮВ
ЮЮВ
ЮВ
ЮВ
ЮВ
ЮВ
ЮЮВ
(км/ч)
10-23
10-22
7-20
8-21
7-18
7-15
6-13
(мм)
0
0
0
0
0
0
0
(%)
12
12
12
13
12
11
16

Высота солнцестояния

/ 18.6°
sun-icon
UV 6
04:31
21:25
Полнолуние (176°)
21:34
03:46

METAR для 52.53°С 31.02°В (UMGG)

Время Условия Температура/
Точка росы
Ветер Видимость Погода Облачность Давление Изменить Необработанный
VFR 36°C / 14°C 150º 6kt >10km - Clouds and Visibility OK 1017 No Significant change UMGG 241530Z 15003MPS CAVOK 36/14 Q1017 R10/CLRD// NOSIG
VFR 36°C / 14°C 140º 6kt >10km - Clouds and Visibility OK 1017 No Significant change UMGG 241500Z 14003MPS CAVOK 36/14 Q1017 R28/D NOSIG
VFR 36°C / 11°C 110º 6kt >10km - Clouds and Visibility OK 1017 No Significant change UMGG 241430Z 11003MPS CAVOK 36/11 Q1017 R28/D NOSIG
VFR 36°C / 11°C 160º 8kt >10km - Clouds and Visibility OK 1017 No Significant change UMGG 241400Z 16004MPS CAVOK 36/11 Q1017 R28/CLRD// NOSIG
VFR 36°C / 13°C variable 2kt >10km - Clouds and Visibility OK 1018 No Significant change UMGG 241330Z VRB01MPS CAVOK 36/13 Q1018 R28/CLRD// NOSIG
VFR 36°C / 13°C variable 2kt >10km - Clouds and Visibility OK 1018 No Significant change UMGG 241300Z VRB01MPS CAVOK 36/13 Q1018 R10/CLRD// NOSIG
VFR 36°C / 10°C 60º 6kt >10km - Clouds and Visibility OK 1018 No Significant change UMGG 241230Z 06003MPS CAVOK 36/10 Q1018 R10/CLRD// NOSIG
VFR 36°C / 10°C 120º 6kt >10km - Clouds and Visibility OK 1018 No Significant change UMGG 241200Z 12003MPS CAVOK 36/10 Q1018 R10/CLRD// NOSIG
VFR 35°C / 12°C 80º 6kt >10km - Clouds and Visibility OK 1019 No Significant change UMGG 241130Z 08003MPS CAVOK 35/12 Q1019 R10/CLRD// NOSIG
VFR 35°C / 12°C 60º 6kt >10km - Clouds and Visibility OK 1019 No Significant change UMGG 241100Z 06003MPS CAVOK 35/12 Q1019 R10/CLRD// NOSIG
VFR 34°C / 11°C 60º 6kt >10km - Clouds and Visibility OK 1019 No Significant change UMGG 241030Z 06003MPS CAVOK 34/11 Q1019 R10/CLRD// NOSIG
VFR 34°C / 11°C variable 2kt >10km - Clouds and Visibility OK 1019 No Significant change UMGG 241000Z VRB01MPS CAVOK 34/11 Q1019 R10/CLRD// NOSIG
VFR 33°C / 15°C 60º 4kt >10km - Clouds and Visibility OK 1019 No Significant change UMGG 240930Z 06002MPS CAVOK 33/15 Q1019 R10/CLRD// NOSIG
VFR 33°C / 15°C 50º 4kt >10km - Clouds and Visibility OK 1019 No Significant change UMGG 240900Z 05002MPS CAVOK 33/15 Q1019 R10/CLRD// NOSIG
VFR 32°C / 15°C 80º 4kt >10km - Clouds and Visibility OK 1019 No Significant change UMGG 240830Z 08002MPS CAVOK 32/15 Q1019 R10/CLRD// NOSIG
VFR 32°C / 15°C 60º 4kt >10km - Clouds and Visibility OK 1019 No Significant change UMGG 240800Z 06002MPS CAVOK 32/15 Q1019 R10/CLRD// NOSIG
VFR 31°C / 18°C 60º 4kt >10km - Clouds and Visibility OK 1019 No Significant change UMGG 240730Z 06002MPS CAVOK 31/18 Q1019 R10/CLRD// NOSIG
VFR 31°C / 18°C 50º 4kt >10km - Clouds and Visibility OK 1020 No Significant change UMGG 240700Z 05002MPS CAVOK 31/18 Q1020 R10/D NOSIG
VFR 29°C / 18°C 140º 4kt >10km - Clouds and Visibility OK 1020 No Significant change UMGG 240630Z 14002MPS CAVOK 29/18 Q1020 R10/CLRD// NOSIG
VFR 29°C / 18°C 110º 6kt >10km - Clouds and Visibility OK 1020 No Significant change UMGG 240600Z 11003MPS CAVOK 29/18 Q1020 R10/CLRD// NOSIG
VFR 26°C / 18°C 130º 4kt >10km - Clouds and Visibility OK 1019 No Significant change UMGG 240530Z 13002MPS CAVOK 26/18 Q1019 R10/CLRD// NOSIG
VFR 26°C / 18°C 130º 6kt >10km - Clouds and Visibility OK 1019 No Significant change UMGG 240500Z 13003MPS CAVOK 26/18 Q1019 R10/CLRD// NOSIG
VFR 23°C / 19°C variable 2kt 9000m - Clear 1019 No Significant change UMGG 240430Z VRB01MPS 9000 NSC 23/19 Q1019 R10/CLRD// NOSIG
MVFR 23°C / 19°C variable 2kt 8000m - Clear 1019 No Significant change UMGG 240400Z VRB01MPS 8000 NSC 23/19 Q1019 R10/CLRD// NOSIG

VFR

36°C / 14°C

[Больше]
Ветер 150º 6kt
Видимость >10km
Погода -
Облачность Clouds and Visibility OK
Давление 1017
Изменить No Significant change
Необработанный UMGG 241530Z 15003MPS CAVOK 36/14 Q1017 R10/CLRD// NOSIG

VFR

36°C / 14°C

[Больше]
Ветер 140º 6kt
Видимость >10km
Погода -
Облачность Clouds and Visibility OK
Давление 1017
Изменить No Significant change
Необработанный UMGG 241500Z 14003MPS CAVOK 36/14 Q1017 R28/D NOSIG

VFR

36°C / 11°C

[Больше]
Ветер 110º 6kt
Видимость >10km
Погода -
Облачность Clouds and Visibility OK
Давление 1017
Изменить No Significant change
Необработанный UMGG 241430Z 11003MPS CAVOK 36/11 Q1017 R28/D NOSIG

VFR

36°C / 11°C

[Больше]
Ветер 160º 8kt
Видимость >10km
Погода -
Облачность Clouds and Visibility OK
Давление 1017
Изменить No Significant change
Необработанный UMGG 241400Z 16004MPS CAVOK 36/11 Q1017 R28/CLRD// NOSIG

VFR

36°C / 13°C

[Больше]
Ветер variable 2kt
Видимость >10km
Погода -
Облачность Clouds and Visibility OK
Давление 1018
Изменить No Significant change
Необработанный UMGG 241330Z VRB01MPS CAVOK 36/13 Q1018 R28/CLRD// NOSIG

VFR

36°C / 13°C

[Больше]
Ветер variable 2kt
Видимость >10km
Погода -
Облачность Clouds and Visibility OK
Давление 1018
Изменить No Significant change
Необработанный UMGG 241300Z VRB01MPS CAVOK 36/13 Q1018 R10/CLRD// NOSIG

VFR

36°C / 10°C

[Больше]
Ветер 60º 6kt
Видимость >10km
Погода -
Облачность Clouds and Visibility OK
Давление 1018
Изменить No Significant change
Необработанный UMGG 241230Z 06003MPS CAVOK 36/10 Q1018 R10/CLRD// NOSIG

VFR

36°C / 10°C

[Больше]
Ветер 120º 6kt
Видимость >10km
Погода -
Облачность Clouds and Visibility OK
Давление 1018
Изменить No Significant change
Необработанный UMGG 241200Z 12003MPS CAVOK 36/10 Q1018 R10/CLRD// NOSIG

VFR

35°C / 12°C

[Больше]
Ветер 80º 6kt
Видимость >10km
Погода -
Облачность Clouds and Visibility OK
Давление 1019
Изменить No Significant change
Необработанный UMGG 241130Z 08003MPS CAVOK 35/12 Q1019 R10/CLRD// NOSIG

VFR

35°C / 12°C

[Больше]
Ветер 60º 6kt
Видимость >10km
Погода -
Облачность Clouds and Visibility OK
Давление 1019
Изменить No Significant change
Необработанный UMGG 241100Z 06003MPS CAVOK 35/12 Q1019 R10/CLRD// NOSIG

VFR

34°C / 11°C

[Больше]
Ветер 60º 6kt
Видимость >10km
Погода -
Облачность Clouds and Visibility OK
Давление 1019
Изменить No Significant change
Необработанный UMGG 241030Z 06003MPS CAVOK 34/11 Q1019 R10/CLRD// NOSIG

VFR

34°C / 11°C

[Больше]
Ветер variable 2kt
Видимость >10km
Погода -
Облачность Clouds and Visibility OK
Давление 1019
Изменить No Significant change
Необработанный UMGG 241000Z VRB01MPS CAVOK 34/11 Q1019 R10/CLRD// NOSIG

VFR

33°C / 15°C

[Больше]
Ветер 60º 4kt
Видимость >10km
Погода -
Облачность Clouds and Visibility OK
Давление 1019
Изменить No Significant change
Необработанный UMGG 240930Z 06002MPS CAVOK 33/15 Q1019 R10/CLRD// NOSIG

VFR

33°C / 15°C

[Больше]
Ветер 50º 4kt
Видимость >10km
Погода -
Облачность Clouds and Visibility OK
Давление 1019
Изменить No Significant change
Необработанный UMGG 240900Z 05002MPS CAVOK 33/15 Q1019 R10/CLRD// NOSIG

VFR

32°C / 15°C

[Больше]
Ветер 80º 4kt
Видимость >10km
Погода -
Облачность Clouds and Visibility OK
Давление 1019
Изменить No Significant change
Необработанный UMGG 240830Z 08002MPS CAVOK 32/15 Q1019 R10/CLRD// NOSIG

VFR

32°C / 15°C

[Больше]
Ветер 60º 4kt
Видимость >10km
Погода -
Облачность Clouds and Visibility OK
Давление 1019
Изменить No Significant change
Необработанный UMGG 240800Z 06002MPS CAVOK 32/15 Q1019 R10/CLRD// NOSIG

VFR

31°C / 18°C

[Больше]
Ветер 60º 4kt
Видимость >10km
Погода -
Облачность Clouds and Visibility OK
Давление 1019
Изменить No Significant change
Необработанный UMGG 240730Z 06002MPS CAVOK 31/18 Q1019 R10/CLRD// NOSIG

VFR

31°C / 18°C

[Больше]
Ветер 50º 4kt
Видимость >10km
Погода -
Облачность Clouds and Visibility OK
Давление 1020
Изменить No Significant change
Необработанный UMGG 240700Z 05002MPS CAVOK 31/18 Q1020 R10/D NOSIG

VFR

29°C / 18°C

[Больше]
Ветер 140º 4kt
Видимость >10km
Погода -
Облачность Clouds and Visibility OK
Давление 1020
Изменить No Significant change
Необработанный UMGG 240630Z 14002MPS CAVOK 29/18 Q1020 R10/CLRD// NOSIG

VFR

29°C / 18°C

[Больше]
Ветер 110º 6kt
Видимость >10km
Погода -
Облачность Clouds and Visibility OK
Давление 1020
Изменить No Significant change
Необработанный UMGG 240600Z 11003MPS CAVOK 29/18 Q1020 R10/CLRD// NOSIG

VFR

26°C / 18°C

[Больше]
Ветер 130º 4kt
Видимость >10km
Погода -
Облачность Clouds and Visibility OK
Давление 1019
Изменить No Significant change
Необработанный UMGG 240530Z 13002MPS CAVOK 26/18 Q1019 R10/CLRD// NOSIG

VFR

26°C / 18°C

[Больше]
Ветер 130º 6kt
Видимость >10km
Погода -
Облачность Clouds and Visibility OK
Давление 1019
Изменить No Significant change
Необработанный UMGG 240500Z 13003MPS CAVOK 26/18 Q1019 R10/CLRD// NOSIG

VFR

23°C / 19°C

[Больше]
Ветер variable 2kt
Видимость 9000m
Погода -
Облачность Clear
Давление 1019
Изменить No Significant change
Необработанный UMGG 240430Z VRB01MPS 9000 NSC 23/19 Q1019 R10/CLRD// NOSIG

MVFR

23°C / 19°C

[Больше]
Ветер variable 2kt
Видимость 8000m
Погода -
Облачность Clear
Давление 1019
Изменить No Significant change
Необработанный UMGG 240400Z VRB01MPS 8000 NSC 23/19 Q1019 R10/CLRD// NOSIG

TAF для 52.53°С 31.02°В (UMGG)

From till


Maximum Temperature 37ºC on . Minimum Temperature 21ºC on .
From till Wind 160º 12kt. Visibility 10km or more. Scattered Clouds 3000ft.
Temporarly from till Wind variable 4kt.
Temporarly from till Wind 180º 12kt.

Необработанный: TAF UMGG 241055Z 2412/2512 16006MPS 9999 SCT030 TX37/2412Z TN21/2502Z TEMPO 2412/2503 VRB02MPS TEMPO 2503/2512 18006MPS

Текущие спутниковые изображения и снимки дождя для 52.53°С 31.02°В

Указатель местности находится на 52.53°С 31.02°В. [Больше]

Спутниковое изображение в реальном времени сочетает в себе видимый свет в дневное время с инфракрасным излучением в ночное время. Ночью изображение получается не темным, так как инфракрасное излучение может обнаружить разницу температур. К сожалению, низкие облака и туман трудно отличить от температуры у поверхности земли и поэтому могут быть почти незаметны ночью. Спутниковые снимки Meteosat для Европы обновляются каждые 5 минут в режиме реального времени.Снимки GOES-16/GOES-17 (Северная и Южная Америка) и Химавари (Азия) обновляются каждые 10 минут.

Копирайт 2021 EUMETSAT / meteoblue. / Копирайт 2021 meteoblue

Радарный и сверхкраткосрочный прогноз осадков для 52.53°С 31.02°В

Индикатор местности находится на 52.53°С 31.02°В. Анимация показывает радар осадков за последний час, а также прогноз погоды для1h. Умеренная морось или легкий снег могут быть незаметны для радара. Интенсивность осадковмаркированна цветной кодировкой, начиная со светло-синего и заканчивая темно-пурпурным.